Location: Bambrugge
(50.9212°N, 3.9299°E)
Time: 02:36:57
(UTC+00:00)

Cosmos 2322 Rocket - Pass Details

Date: 23 May 2024
Orbit: 832 x 850 km, 71.0° (Epoch: 21 June)

Event Time Altitude Azimuth Distance (km) Brightness Sun altitude
Rises 00:50:09 0° 331° (NNW) 3,400 6.0 -16.8°
Reaches altitude 10° 00:52:43 10° 338° (NNW) 2,465 5.4 -16.7°
Maximum altitude 00:58:09 46° 51° (NE) 1,122 3.2 -16.5°
Drops below altitude 10° 01:03:34 10° 125° (SE) 2,464 4.5 -16.2°
Sets 01:06:07 0° 131° (SE) 3,398 5.1 -16.0°
